Regional Weather Roundup
Issued by NWS Kansas City/Pleasant Hill, MO

Home | Current Version | Previous Version | Graphics & Text | Print | Product List | Glossary Off
Versions: 1 2 3 4 5 6 7 8 9 10 11 12 13 14 15 16 17 18 19 20 21 22 23 24 25 26 27 28 29 30 31 32 33 34 35 36 37 38 39 40 41 42 43 44 45 46 47 48 49 50

000
ASUS43 KEAX 230010
RWREAX

WEATHER ROUNDUP FOR EASTERN KANSAS AND NORTHWEST MISSOURI
NATIONAL WEATHER SERVICE KANSAS CITY/PLEASANT HILL MO
600 PM CST SAT NOV 22 2014

KSZ040-057-103>105-MOZ028-029-037-043-230100-
...KANSAS CITY METROPOLITAN AREA...

CITY           SKY/WX    TMP DP  RH WIND       PRES   REMARKS
K.C. INTL      PTCLDY    54  50  86 S13       29.75F
6HR MIN TEMP:  54; 6HR MAX TEMP:  58;

K.C. DOWNTOWN  MOCLDY    57  50  77 S10       29.76F
6HR MIN TEMP:  57; 6HR MAX TEMP:  62;

LEES SUMMIT    NOT AVBL
OLATHE - IXD   MOCLDY    54  51  90 S12       29.77F
6HR MIN TEMP:  53; 6HR MAX TEMP:  59;

OLATHE - OJC   MOCLDY    53  51  93 S13       29.77F
6HR MIN TEMP:  53; 6HR MAX TEMP:  59;

LAWRENCE       MOCLDY    56  50  80 S12       29.75F

$$

MOZ001>008-011>017-020>025-030>033-038>040-044>046-053-054-230100-
...NORTHERN AND CENTRAL MISSOURI...

CITY           SKY/WX    TMP DP  RH WIND       PRES   REMARKS
ST. JOSEPH     CLEAR     54  51  90 S14       29.73F
6HR MIN TEMP:  51; 6HR MAX TEMP:  57;

MOSBY          MOCLDY    55  50  82 S8        29.78S
WARRENSBURG    MOCLDY    54  48  82 SE5       29.81F
WHITEMAN AFB   MOCLDY    53  49  88 SE3       29.81S
6HR MIN TEMP:  53; 6HR MAX TEMP:  61;

CLINTON        MOCLDY    55  52  88 S8        29.83S
SEDALIA        MOCLDY    54  50  86 S8        29.84S
6HR MIN TEMP:  54; 6HR MAX TEMP:  62;

WARSAW         NOT AVBL
MARSHALL       MOCLDY    55  52  88 SE8       29.83S
CHILLICOTHE      N/A     58  50  75 S10       29.79F
6HR MIN TEMP:  58; 6HR MAX TEMP:  61; 6HR PCP:  0.01;

MOBERLY        MOCLDY    57  48  72 S8        29.84F
KIRKSVILLE     MOCLDY    57  50  77 S14       29.81F
6HR MIN TEMP:  57; 6HR MAX TEMP:  59;


$$

MOZ041-047>049-056>058-063>065-088>090-097-230100-
...EASTERN AND SOUTHERN MISSOURI...

CITY           SKY/WX    TMP DP  RH WIND       PRES   REMARKS
ST. LOUIS INTL LGT RAIN  56  49  77 S5        29.95S
6HR MIN TEMP:  55; 6HR MAX TEMP:  60; 6HR PCP:  0.04;

SPIRIT OF STL  LGT RAIN  54  50  86 S3        29.93S
COLUMBIA       MOCLDY    55  50  83 S13       29.86F
JEFFERSON CITY CLOUDY    57  50  77 S9        29.88S
MEXICO         CLOUDY    57  54  88 S13       29.86
ROLLA          CLOUDY    52  50  93 S13       29.89S
LEBANON        CLOUDY    52  48  87 S14G20    29.89F
OSAGE BEACH    CLOUDY    55  48  76 S14G21    29.88R
SPRINGFIELD    CLOUDY    53  50  89 S15       29.86F
BRANSON        MOCLDY    52  50  93 S8        29.92F
NEVADA         PTCLDY    52  50  93 S10       29.84R
JOPLIN         MOCLDY    53  50  89 S8        29.84S
WEST PLAINS    CLOUDY    51  49  92 S15       29.98F

$$

IAZ060-094-KSZ022-034>040-054-083-096-NEZ052-066-093-230100-
...KANSAS...SOUTHEAST NEBRASKA AND IOWA...

CITY           SKY/WX    TMP DP  RH WIND       PRES   REMARKS
TOPEKA         CLOUDY    57  53  86 S9        29.73F
6HR MIN TEMP:  57; 6HR MAX TEMP:  60;

MANHATTAN      CLOUDY    60  53  77 S9        29.68F
EMPORIA        MOCLDY    54  52  93 S17       29.73F
CHANUTE        CLOUDY    54  52  93 S10       29.80S
WICHITA        CLOUDY    58  53  84 S17       29.72S
OMAHA          CLOUDY    54  50  86 S16       29.61F
LINCOLN        CLOUDY    55  50  83 S16       29.60F
FALLS CITY     CLOUDY    57  54  89 S14       29.67F
LAMONI         CLOUDY    54  53  97 S10       29.73F FOG
DES MOINES     CLOUDY    52  50  93 S9        29.70F FOG

$$



USA.gov is the U.S. government's official web portal to all federal, state and local government web resources and services.